Terug naar catalogus

GEESAT 3-03

ActiefWetenschapLEO
NORAD 61013·PAYLOAD·🇨🇳 China

Gelanceerd Sep 5, 2024 vanaf Taiyuan Satellite Launch Center

Loading…

Volgende Passages (komende 24 uur)

TLE

VersSource: Space-Track

Epoch: Sep 14, 2026, 19:49 UTC

1 61013U 24159C   26257.82637332  .00001747  00000-0  23187-3 0  9991
2 61013  49.9948  26.1441 0005664 113.8178 246.3355 14.84496708110151

Volg GEESAT 3-03 in realtime met AllMySat

Download on the App Store